Weather History for College Park, MD

Change the Weather History Date:

Saturday, January 19, 2013

  Actual Average Record
Temperature  
Mean Temperature 45 °F -  
Max Temperature 56 °F 42 °F 70 °F (1951)
Min Temperature 34 °F 25 °F -3 °F (1957)
Degree Days  
Heating Degree Days 20    
Moisture  
Dew Point 28 °F    
Average Humidity 55    
Maximum Humidity 72    
Minimum Humidity 34    
Precipitation  
Precipitation 0.00 in - - ()
Sea Level Pressure  
Sea Level Pressure 30.24 in    
Wind  
Wind Speed 6 mph (SSW)    
Max Wind Speed 10 mph    
Max Gust Speed 17 mph    
Visibility 10 miles    
Events      
Averages and records for this station are not official NWS values.
T = Trace of Precipitation, MM = Missing Value Source: NWS Daily Summary

Daily Weather History Graph

Daily Weather History Graph

Search for Another Location

Airport:

Trip Planner

Search our weather history database for the weather conditions in past years. The results will help you decide how hot, cold, wet, or windy it might be!

Date:

Astronomy

Jan. 19, 2013 Rise Set
Actual Time 7:23 AM EST 5:14 PM EST
Civil Twilight 6:54 AM EST 5:43 PM EST
Nautical Twilight 6:21 AM EST 6:15 PM EST
Astronomical Twilight 5:49 AM EST 6:47 PM EST
Moon 11:38 AM EST (1/19) 12:56 AM EST (1/19)
Length of Visible Light 10h 49m
Length of Day
9h 51m
First Quarter, 57% of the Moon is Illuminated
Jan 19
First Quarter
Jan 26
Full
Feb 3
Last Quarter
Feb 10
New
Feb 17
First Quarter

Hourly Weather History & Observations

Time (EST) Temp. Windchill Dew Point Humidity Pressure Visibility Wind Dir Wind Speed Gust Speed Precip Events Conditions
12:40 AM 34.2 °F 30.0 °F 23.4 °F 65% 30.42 in 10.0 mi South 4.6 mph - N/A   Clear
1:00 AM 34.2 °F 30.0 °F 23.9 °F 66% 30.41 in 10.0 mi South 4.6 mph - N/A   Clear
1:20 AM 34.3 °F 30.2 °F 24.3 °F 67% 30.41 in 10.0 mi South 4.6 mph - N/A   Clear
1:45 AM 34.9 °F 30.8 °F 25.0 °F 67% 30.41 in 10.0 mi South 4.6 mph - N/A   Clear
2:05 AM 35.2 °F 29.5 °F 25.5 °F 68% 30.41 in 10.0 mi South 6.9 mph - N/A   Clear
2:25 AM 35.4 °F 30.5 °F 25.7 °F 68% 30.41 in 10.0 mi SSW 5.8 mph - N/A   Clear
2:45 AM 35.6 °F 31.7 °F 26.1 °F 68% 30.41 in 10.0 mi South 4.6 mph - N/A   Clear
3:10 AM 35.6 °F 29.2 °F 26.4 °F 69% 30.40 in 10.0 mi South 8.1 mph - N/A   Clear
3:30 AM 35.6 °F 30.7 °F 26.6 °F 70% 30.40 in 10.0 mi South 5.8 mph - N/A   Clear
3:50 AM 35.4 °F 31.5 °F 26.6 °F 70% 30.39 in 10.0 mi SSW 4.6 mph - N/A   Clear
4:15 AM 35.1 °F 32.2 °F 26.6 °F 71% 30.38 in 10.0 mi South 3.5 mph - N/A   Clear
4:35 AM 35.1 °F 30.1 °F 26.6 °F 71% 30.38 in 10.0 mi South 5.8 mph - N/A   Clear
4:55 AM 34.7 °F 30.6 °F 26.6 °F 72% 30.38 in 10.0 mi South 4.6 mph - N/A   Clear
5:15 AM 34.7 °F 28.8 °F 26.4 °F 72% 30.37 in 10.0 mi South 6.9 mph - N/A   Clear
5:40 AM 34.9 °F 29.9 °F 26.1 °F 70% 30.37 in 10.0 mi South 5.8 mph - N/A   Clear
6:00 AM 35.2 °F 29.5 °F 25.9 °F 69% 30.37 in 10.0 mi South 6.9 mph - N/A   Clear
6:20 AM 35.6 °F 31.7 °F 25.7 °F 67% 30.37 in 10.0 mi South 4.6 mph - N/A   Clear
6:40 AM 35.6 °F 30.7 °F 25.7 °F 67% 30.36 in 10.0 mi South 5.8 mph - N/A   Clear
7:05 AM 35.6 °F 30.7 °F 26.1 °F 68% 30.35 in 10.0 mi SSW 5.8 mph - N/A   Clear
7:25 AM 35.6 °F 31.7 °F 26.4 °F 69% 30.36 in 10.0 mi SSW 4.6 mph - N/A   Clear
7:45 AM 36.0 °F 31.1 °F 26.6 °F 69% 30.35 in 10.0 mi SSW 5.8 mph - N/A   Clear
8:05 AM 36.9 °F 32.2 °F 26.6 °F 66% 30.35 in 10.0 mi SSW 5.8 mph - N/A   Clear
8:30 AM 37.8 °F 31.8 °F 27.1 °F 66% 30.35 in 10.0 mi South 8.1 mph - N/A   Clear
8:50 AM 38.7 °F 32.4 °F 27.3 °F 64% 30.35 in 10.0 mi South 9.2 mph - N/A   Clear
9:10 AM 39.4 °F 33.2 °F 27.5 °F 62% 30.35 in 10.0 mi SSW 9.2 mph - N/A   Clear
9:55 AM 41.9 °F 37.5 °F 28.4 °F 59% 30.35 in 10.0 mi South 6.9 mph - N/A   Clear
10:15 AM 42.6 °F 36.8 °F 28.4 °F 57% 30.35 in 10.0 mi SSW 10.4 mph - N/A   Clear
10:35 AM 43.2 °F 39.0 °F 28.4 °F 56% 30.34 in 10.0 mi South 6.9 mph - N/A   Clear
10:55 AM 44.6 °F 40.2 °F 29.1 °F 55% 30.32 in 10.0 mi South 8.1 mph - N/A   Clear
11:20 AM 46.2 °F 42.2 °F 29.3 °F 52% 30.30 in 10.0 mi SSW 8.1 mph - N/A   Clear
11:40 AM 46.8 °F - 29.1 °F 50% 30.28 in 10.0 mi South 6.9 mph - N/A   Clear
11:55 AM 47.8 °F - 29.5 °F 49% 30.26 in 10.0 mi SSW 5.8 mph - N/A   Clear
12:20 PM 48.9 °F - 29.1 °F 46% 30.24 in 10.0 mi South 6.9 mph - N/A   Clear
12:45 PM 50.4 °F - 28.9 °F 44% 30.22 in 10.0 mi SSW 6.9 mph - N/A   Clear
1:05 PM 51.4 °F - 28.9 °F 42% 30.21 in 10.0 mi South 5.8 mph - N/A   Clear
2:10 PM 54.5 °F - 28.2 °F 36% 30.17 in 10.0 mi SSW 8.1 mph - N/A   Clear
2:30 PM 55.4 °F - 28.4 °F 36% 30.16 in 10.0 mi SSW 5.8 mph - N/A   Clear
2:50 PM 55.4 °F - 28.2 °F 35% 30.15 in 10.0 mi SSW 6.9 mph 17.3 mph N/A   Clear
3:10 PM 56.1 °F - 28.2 °F 34% 30.14 in 10.0 mi South 6.9 mph 17.3 mph N/A   Clear
3:55 PM 56.3 °F - 28.2 °F 34% 30.12 in 10.0 mi SSW 8.1 mph - N/A   Clear
4:15 PM 56.3 °F - 28.6 °F 35% 30.11 in 10.0 mi SSW 5.8 mph - N/A   Clear
4:35 PM 55.8 °F - 29.1 °F 36% 30.11 in 10.0 mi South 3.5 mph - N/A   Clear
5:00 PM 54.0 °F - 28.4 °F 37% 30.10 in 10.0 mi South 4.6 mph - N/A   Clear
5:20 PM 53.1 °F - 28.2 °F 38% 30.10 in 10.0 mi South 4.6 mph - N/A   Clear
5:40 PM 52.7 °F - 27.9 °F 38% 30.09 in 10.0 mi South 4.6 mph - N/A   Clear
6:00 PM 52.2 °F - 27.3 °F 38% 30.10 in 10.0 mi South 3.5 mph - N/A   Clear
6:25 PM 51.8 °F - 26.8 °F 38% 30.09 in 10.0 mi South 5.8 mph - N/A   Clear
6:45 PM 51.1 °F - 26.6 °F 39% 30.09 in 10.0 mi SSW 5.8 mph - N/A   Clear
7:25 PM 50.2 °F - 27.3 °F 41% 30.09 in 10.0 mi South 6.9 mph - N/A   Clear
7:50 PM 49.8 °F - 27.5 °F 42% 30.09 in 10.0 mi South 3.5 mph - N/A   Clear
8:30 PM 48.7 °F - 28.4 °F 45% 30.08 in 10.0 mi South 4.6 mph - N/A   Clear
8:50 PM 48.4 °F - 28.9 °F 47% 30.07 in 10.0 mi South 6.9 mph - N/A   Clear
9:15 PM 48.2 °F - 29.1 °F 48% 30.06 in 10.0 mi South 5.8 mph - N/A   Clear
9:35 PM 47.7 °F - 29.3 °F 49% 30.05 in 10.0 mi South 8.1 mph - N/A   Clear
9:55 PM 47.5 °F - 29.3 °F 49% 30.05 in 10.0 mi SSW 3.5 mph - N/A   Clear
10:15 PM 47.3 °F - 29.7 °F 50% 30.05 in 10.0 mi South 3.5 mph - N/A   Clear
10:40 PM 46.4 °F 42.9 °F 30.2 °F 53% 30.03 in 10.0 mi South 6.9 mph - N/A   Clear
11:00 PM 46.4 °F 44.3 °F 30.2 °F 53% 30.02 in 10.0 mi South 4.6 mph - N/A   Clear
11:15 PM 45.7 °F 44.4 °F 30.2 °F 55% 30.01 in 10.0 mi South 3.5 mph - N/A   Clear
11:45 PM 45.9 °F 42.3 °F 30.2 °F 54% 29.99 in 10.0 mi South 6.9 mph - N/A   Clear